Location: Praha
(50.0830°N, 14.4670°E)
Time: 03:20:01
(UTC+02:00)

ISS - Pass Details

Date: 15 May 2024
Orbit: 409 x 414 km, 51.6° (Epoch: 23 May)

Event Time Altitude Azimuth Distance (km) Brightness Sun altitude
Rises 22:41:44 0° 269° (W) 2,348 0.5 -14.5°
Reaches altitude 10° 22:43:50 10° 272° (W) 1,485 -0.5 -14.7°
Maximum altitude 22:47:09 66° 355° (N) 456 -3.4 -14.9°
Drops below altitude 10° 22:50:28 10° 79° (E) 1,483 -1.2 -15.2°
Enters shadow 22:50:48 - 80° (E) 1,622 -1.0 -15.2°
